User: anonymous   Login
Location: Olsztyn
(53.7767°N, 20.4765°E)
Time: 21:12:48
(UTC+01:00)
Language:

Tiros 1 despin weight - Orbit

View from above orbital plane
View from above orbital plane
View from above satellite
View from above satellite

Ground track
Ground track

The orbit data is extracted from the following two-line orbital elements,

1   115U 60002D   22025.13713411  .00000513  00000-0  87210-4 0  9998
2   115  48.1679 332.3952 0034989 314.5760  45.2299 14.83999299300096
Epoch (UTC): 25 January 2022 03:17:28
Eccentricity: 0.0034989
inclination: 48.1679°
perigee height: 592 km
apogee height: 641 km
right ascension of ascending node: 332.3952°
argument of perigee: 314.5760°
revolutions per day: 14.83999299
mean anomaly at epoch: 45.2299°
orbit number at epoch: 30009

The dashed part of the orbit path shows where the satellite is in the earth's shadow,  

DLR